Location: Altleiningen
(49.5078°N, 8.0741°E)
Time: 03:42:11
(UTC+00:00)

Okean 3 - Pass Details

Date: 03 March 2021
Orbit: 577 x 600 km, 82.5° (Epoch: 16 April)

Event Time Altitude Azimuth Distance (km) Brightness Sun altitude
Rises 18:35:21 0° 357° (N) 2,832 7.1 -14.0°
Reaches altitude 10° 18:37:44 10° 7° (N) 1,930 6.1 -14.4°
Maximum altitude 18:41:37 33° 72° (ENE) 1,009 4.2 -15.0°
Enters shadow 18:43:01 26° 109° (ESE) 1,171 4.4 -15.2°
